TimeEST,TemperatureF,Dew PointF,Humidity,Sea Level PressureIn,VisibilityMPH,Wind Direction,Wind SpeedMPH,Gust SpeedMPH,PrecipitationIn,Events,Conditions,WindDirDegrees,DateUTC
12:54 AM,36.0,28.9,76,30.06,10.0,WNW,5.8,-,0.00,Snow,Light Snow,290,2012-11-05 05:54:00
1:54 AM,36.0,28.9,76,30.06,9.0,Calm,Calm,-,0.00,Snow,Light Snow,0,2012-11-05 06:54:00
2:54 AM,36.0,28.9,76,30.05,9.0,Calm,Calm,-,0.00,Snow,Light Snow,0,2012-11-05 07:54:00
3:54 AM,36.0,27.0,70,30.05,10.0,NNW,4.6,-,0.00,,Overcast,340,2012-11-05 08:54:00
4:54 AM,36.0,27.0,70,30.06,9.0,NNW,4.6,-,0.00,Snow,Light Snow,330,2012-11-05 09:54:00
5:54 AM,35.1,27.0,72,30.07,9.0,NW,4.6,-,0.00,Snow,Light Snow,310,2012-11-05 10:54:00
6:54 AM,35.1,28.0,76,30.09,9.0,NW,5.8,-,0.00,Snow,Light Snow,310,2012-11-05 11:54:00
7:54 AM,35.1,27.0,72,30.11,10.0,NW,4.6,-,0.00,,Overcast,320,2012-11-05 12:54:00
8:54 AM,36.0,27.0,70,30.12,9.0,NNW,5.8,-,0.00,Snow,Light Snow,340,2012-11-05 13:54:00
9:54 AM,37.0,26.1,65,30.13,9.0,North,4.6,-,0.00,Snow,Light Snow,360,2012-11-05 14:54:00
10:54 AM,37.0,26.1,65,30.14,10.0,NW,5.8,-,0.00,,Mostly Cloudy,320,2012-11-05 15:54:00
11:54 AM,37.9,19.0,47,30.12,10.0,North,5.8,-,N/A,,Mostly Cloudy,350,2012-11-05 16:54:00
12:54 PM,37.9,16.0,41,30.12,10.0,NNW,9.2,-,N/A,,Mostly Cloudy,330,2012-11-05 17:54:00
1:54 PM,39.0,19.9,46,30.12,10.0,NNW,12.7,-,N/A,,Overcast,340,2012-11-05 18:54:00
2:54 PM,37.9,19.9,48,30.13,10.0,NNW,9.2,-,N/A,,Overcast,330,2012-11-05 19:54:00
3:54 PM,36.0,21.9,57,30.13,10.0,NNW,6.9,-,0.00,,Overcast,330,2012-11-05 20:54:00
4:54 PM,36.0,23.0,59,30.14,10.0,NW,4.6,-,N/A,,Overcast,320,2012-11-05 21:54:00
5:54 PM,36.0,24.1,62,30.15,10.0,NW,3.5,-,0.00,Snow,Light Snow,320,2012-11-05 22:54:00
6:54 PM,36.0,24.1,62,30.17,9.0,Calm,Calm,-,0.00,Snow,Light Snow,0,2012-11-05 23:54:00
7:54 PM,36.0,23.0,59,30.18,9.0,North,3.5,-,0.00,,Overcast,360,2012-11-06 00:54:00
8:54 PM,35.1,23.0,61,30.19,10.0,North,3.5,-,N/A,,Overcast,10,2012-11-06 01:54:00
9:54 PM,35.1,21.9,59,30.19,10.0,Calm,Calm,-,N/A,,Overcast,0,2012-11-06 02:54:00
10:54 PM,34.0,21.9,61,30.18,10.0,Calm,Calm,-,N/A,,Overcast,0,2012-11-06 03:54:00
11:54 PM,34.0,21.9,61,30.18,10.0,SE,4.6,-,N/A,,Mostly Cloudy,130,2012-11-06 04:54:00